Weather in Nerchinsky Zavod

Russia / Zabaykalsky Krai     51°18′42″N   119°36′26″E
temp.,
°C
wind,
m/s
gust,
m/s
humid.,
%
clouds,
%
prec.,
mm/h
press.,
hPa
HPBL,
m
24 september, fri
fri2400:00+7nw358932 0.0 1019100
03:00+4nw119086 0.0 102210
06:00+2nw119172 0.0 102410
09:00+6wnw11805 0.0 1024197
12:00+12nw11615 0.0 1022673
15:00+14w115157 0.0 1021944
18:00+12sse1163100 0.0 102111
21:00+8ssw1172100 0.0 102210
25 september, sat
sat2500:00+6nne1181100 0.0 102310
03:00+5ne11845 0.0 102410
06:00+4ne118791 0.0 102510
09:00+8e117647 0.0 1025145
12:00+13ese2257100 0.0 1023542
15:00+16se124977 0.0 1022764
18:00+13ne1161100 0.0 102010
21:00+10ese2266100 0.0 102010
26 september, sun
sun2600:00+10e2180100 0.0 101914
03:00+9ese1192100 0.0 101731
06:00+10se31090100 0.1 1014385
09:00+10se41396100 5.5 1013659
12:00+12s61488100 0.4 1010976
15:00+14s51294100 8.3 1006668
18:00+14sse31096100 2.0 1004653
21:00+12ssw3696100 6.6 1003131
27 september, mon
mon2700:00+7wnw5118930 0.7 1007427
03:00+7wsw477851 0.8 1008302
06:00+4wsw6980100 0.0 1009854
09:00+5sw69796 0.0 1010780
12:00+8wsw796046 0.0 10091269
15:00+11wsw812485 0.0 10071763
18:00+9sw611580 0.0 1008417
21:00+4ssw3369100 0.0 101029
28 september, tue
tue2800:00+4s227154 0.0 100926
03:00+4e117697 0.0 100810
06:00+4nne2274100 0.0 100619
09:00+6nnw1270100 0.0 1005120
12:00+7nne2278100 1.1 1004784
15:00+4nw4793100 2.3 1006510
18:00+6wsw36735 0.1 1006186
21:00+2wsw22743 0.1 100811